This demonstration page uses our WeatherBlox Daily Observations layout. Learn more.

Left ArrowRight Arrow

Hourly Observations for June 10, 2021

Temp ( °F °C ) Dew Point ( °F °C ) Humidity (%) Winds ( mph kmh ) Pressure ( in mb ) Visibility ( mi km ) Precip ( " mm )
12:53 am 00:53 Clear 59 15 38 3.3 46 46 Calm 30.11 1020 10 16 0.00 0.00
1:53 am 01:53 Clear 56 13.3 39 3.9 53 53 SSW 8 13 30.14 1021 10 16 0.00 0.00
2:53 am 02:53 Mostly Clear 56 13.3 35 1.7 46 46 WSW 7 11 30.15 1021 10 16 0.00 0.00
3:53 am 03:53 Clear 56 13.3 37 2.8 49 49 WSW 5 7 30.18 1022 10 16 0.00 0.00
4:53 am 04:53 Clear 56 13.3 42 5.6 60 60 SW 9 15 30.19 1022 10 16 0.00 0.00
5:53 am 05:53 Mostly Cloudy 56 13.3 42 5.6 60 60 SSW 8 13 30.20 1023 10 16 0.00 0.00
6:53 am 06:53 Partly Cloudy 56 13.3 43 6.1 62 62 SE 6 9 30.22 1023 10 16 0.00 0.00
7:53 am 07:53 Sunny 57 13.9 44 6.7 62 62 S 6 9 30.22 1024 10 16 0.00 0.00
8:53 am 08:53 Mostly Sunny 60 15.6 43 6.1 53 53 SSE 7 11 30.23 1024 10 16 0.00 0.00
9:53 am 09:53 Sunny 61 16.1 41 5 48 48 Calm 30.23 1024 10 16 0.00 0.00
10:53 am 10:53 Sunny 65 18.3 41 5 42 42 undefined N/A 30.22 1023 10 16 0.00 0.00
11:53 am 11:53 Sunny 66 18.9 37 2.8 34 34 VRB 3 6 30.21 1023 10 16 0.00 0.00
12:53 pm 12:53 Sunny 69 20.6 38 3.3 32 32 SW 6 9 30.19 1022 10 16 0.00 0.00
1:53 pm 13:53 Sunny 71 21.7 34 1.1 26 26 VRB 5 7 30.16 1022 10 16 0.00 0.00
2:53 pm 14:53 Sunny 73 22.8 33 0.6 23 23 SSE 9 15 30.14 1021 10 16 0.00 0.00
3:53 pm 15:53 Sunny 75 23.9 31 -0.6 20 20 Calm 30.11 1020 10 16 0.00 0.00
4:53 pm 16:53 Sunny 75 23.9 29 -1.7 18 18 S 7 11 30.08 1019 10 16 0.00 0.00
5:53 pm 17:53 Sunny 75 23.9 24 -4.4 15 15 VRB 6 9 30.06 1018 10 16 0.00 0.00
6:53 pm 18:53 Sunny 74 23.3 15 -9.4 10 10 S 9 15 30.04 1017 10 16 0.00 0.00
7:53 pm 19:53 Sunny 73 22.8 19 -7.2 13 13 S 7 11 30.04 1017 10 16 0.00 0.00
8:53 pm 20:53 Clear 71 21.7 25 -3.9 18 18 SSE 3 6 30.02 1017 10 16 0.00 0.00
9:53 pm 21:53 Clear 72 22.2 27 -2.8 19 19 SSW 5 7 30.02 1017 10 16 0.00 0.00
10:53 pm 22:53 Clear 68 20 27 -2.8 21 21 Calm 30.02 1017 10 16 0.00 0.00
11:53 pm 23:53 Clear 67 19.4 27 -2.8 22 22 SE 5 7 30.02 1017 10 16 0.00 0.00

Powered by AerisWeather